Weather History for Huntsville, AL

Change the Weather History Date:

Tuesday, March 4, 2014

  Actual Average Record
Temperature  
Mean Temperature 34 °F 50 °F  
Max Temperature 43 °F 61 °F 82 °F (1923)
Min Temperature 24 °F 40 °F 7 °F (1943)
Degree Days  
Heating Degree Days 31 15  
Month to date heating degree days 81 61  
Since 1 July heating degree days 2916 2513  
Cooling Degree Days 0 0  
Month to date cooling degree days 0 0  
Year to date cooling degree days 1 1  
Moisture  
Dew Point 29 °F    
Average Humidity 79    
Maximum Humidity 96    
Minimum Humidity 62    
Precipitation  
Precipitation 0.00 in 0.16 in 1.69 in (2008)
Month to date precipitation 0.76 0.66  
Year to date precipitation 10.63 10.39  
Snow  
Snow 0.00 in - - ()
Month to date snowfall T  
Since 1 July snowfall 5.2  
Snow Depth 0.00 in    
Sea Level Pressure  
Sea Level Pressure 30.18 in    
Wind  
Wind Speed 4 mph (NNE)    
Max Wind Speed 12 mph    
Max Gust Speed 15 mph    
Visibility 9 miles    
Events      
T = Trace of Precipitation, MM = Missing Value Source: NWS Daily Summary

Daily Weather History Graph

Daily Weather History Graph

Search for Another Location

Airport:

Trip Planner

Search our weather history database for the weather conditions in past years. The results will help you decide how hot, cold, wet, or windy it might be!

Date:

Astronomy

Mar. 04, 2014 Rise Set
Actual Time 6:12 AM CST 5:45 PM CST
Civil Twilight 5:47 AM CST 6:10 PM CST
Nautical Twilight 5:18 AM CST 6:40 PM CST
Astronomical Twilight 4:48 AM CST 7:09 PM CST
Moon 8:08 AM CST (3/4) 9:41 PM CST (3/4)
Length of Visible Light 12h 23m
Length of Day
11h 33m
Waxing Crescent, 15% of the Moon is Illuminated
Mar 4
Waxing Crescent
Mar 8
First Quarter
Mar 16
Full
Mar 23
Last Quarter
Mar 30
New

Hourly Weather History & Observations

Time (CST) Temp. Windchill Dew Point Humidity Pressure Visibility Wind Dir Wind Speed Gust Speed Precip Events Conditions
12:53 AM 24.1 °F 13.7 °F 21.0 °F 88% 30.25 in 10.0 mi North 10.4 mph - N/A   Overcast
1:26 AM 24.8 °F 14.6 °F 21.2 °F 86% 30.23 in 9.0 mi North 10.4 mph - N/A   Overcast
1:53 AM 24.1 °F 14.4 °F 21.0 °F 88% 30.24 in 3.0 mi North 9.2 mph - N/A   Overcast
2:16 AM 24.8 °F 14.6 °F 21.2 °F 86% 30.20 in 4.0 mi North 10.4 mph - N/A   Overcast
2:53 AM 24.1 °F 16.0 °F 21.9 °F 91% 30.23 in 7.0 mi North 6.9 mph - N/A   Overcast
3:53 AM 25.0 °F 17.1 °F 21.9 °F 88% 30.23 in 9.0 mi NNE 6.9 mph - N/A   Overcast
4:48 AM 24.8 °F 17.9 °F 21.2 °F 86% 30.21 in 10.0 mi NE 5.8 mph - N/A   Overcast
4:53 AM 25.0 °F 18.1 °F 21.9 °F 88% 30.23 in 9.0 mi NNE 5.8 mph - N/A   Overcast
5:53 AM 26.1 °F 19.4 °F 21.9 °F 84% 30.22 in 8.0 mi NE 5.8 mph - N/A   Overcast
6:53 AM 27.0 °F 23.0 °F 23.0 °F 85% 30.22 in 8.0 mi NNE 3.5 mph - N/A   Overcast
7:53 AM 28.9 °F 22.8 °F 24.1 °F 82% 30.23 in 8.0 mi ENE 5.8 mph - N/A   Overcast
8:53 AM 32.0 °F 26.4 °F 26.1 °F 79% 30.22 in 10.0 mi East 5.8 mph - N/A   Overcast
9:53 AM 35.1 °F - 28.0 °F 76% 30.23 in 10.0 mi Calm Calm - N/A   Overcast
10:53 AM 37.0 °F 34.5 °F 30.0 °F 76% 30.23 in 10.0 mi North 3.5 mph - N/A   Overcast
11:53 AM 39.9 °F 35.1 °F 30.9 °F 70% 30.18 in 10.0 mi ENE 6.9 mph - N/A   Overcast
12:53 PM 42.1 °F 40.2 °F 30.9 °F 65% 30.17 in 10.0 mi East 3.5 mph - N/A   Overcast
1:13 PM 42.8 °F 41.1 °F 30.2 °F 61% 30.15 in 10.0 mi Variable 3.5 mph - N/A   Overcast
1:53 PM 42.1 °F - 32.0 °F 67% 30.16 in 10.0 mi Calm Calm - N/A   Overcast
2:26 PM 42.8 °F - 30.2 °F 61% 30.14 in 10.0 mi Calm Calm - N/A   Overcast
2:53 PM 42.1 °F - 32.0 °F 67% 30.15 in 10.0 mi Calm Calm - N/A   Overcast
3:53 PM 43.0 °F - 32.0 °F 65% 30.16 in 10.0 mi Calm Calm - N/A   Overcast
4:53 PM 42.1 °F - 33.1 °F 70% 30.16 in 10.0 mi Calm Calm - N/A   Overcast
5:37 PM 41.0 °F - 33.8 °F 76% 30.14 in 9.0 mi Calm Calm - N/A   Overcast
5:53 PM 41.0 °F 39.0 °F 33.1 °F 73% 30.15 in 10.0 mi WNW 3.5 mph - N/A   Overcast
6:06 PM 41.0 °F 39.0 °F 33.8 °F 76% 30.14 in 10.0 mi NW 3.5 mph - N/A   Overcast
6:15 PM 39.2 °F - 33.8 °F 81% 30.13 in 10.0 mi Calm Calm - N/A   Overcast
6:53 PM 39.9 °F 36.7 °F 34.0 °F 79% 30.14 in 9.0 mi NNW 4.6 mph - N/A   Overcast
7:21 PM 39.2 °F 35.9 °F 33.8 °F 81% 30.13 in 9.0 mi NNW 4.6 mph - N/A   Overcast
7:53 PM 39.0 °F - 33.1 °F 79% 30.15 in 9.0 mi Calm Calm - N/A   Overcast
8:53 PM 39.0 °F 35.7 °F 34.0 °F 82% 30.14 in 9.0 mi NNE 4.6 mph - N/A   Overcast
9:53 PM 37.0 °F 33.3 °F 33.1 °F 86% 30.15 in 8.0 mi NNE 4.6 mph - N/A   Overcast
10:53 PM 34.0 °F 31.0 °F 32.0 °F 92% 30.17 in 6.0 mi NNW 3.5 mph - N/A   Mostly Cloudy
11:53 PM 35.1 °F 29.3 °F 32.0 °F 89% 30.16 in 6.0 mi North 6.9 mph - N/A   Scattered Clouds